User: anonymous   Login
Location: Summit Observatory
(39.5293°N, 75.7290°W)
Time: 15:08:27
(UTC-04:00)
Language:

Gurwin Techsat 1B - Orbit

View from above orbital plane
View from above orbital plane
View from above satellite
View from above satellite

Ground track
Ground track

The orbit data is extracted from the following two-line orbital elements,

1 25397U 98043D   15239.86728769  .00000005  00000-0  20693-4 0  9992
2 25397 098.5255 188.0841 0002374 103.1160 316.9848 14.23557611889997
Epoch (UTC): 27 August 2015 20:48:53
Eccentricity: 0.0002374
inclination: 98.5255°
perigee height: 811 km
apogee height: 815 km
right ascension of ascending node: 188.0841°
argument of perigee: 103.1160°
revolutions per day: 14.23557611
mean anomaly at epoch: 316.9848°
orbit number at epoch: 88999

The dashed part of the orbit path shows where the satellite is in the earth's shadow,  

DLR